{"data":{"norad_id":67197,"epoch":"2026-09-20T14:26:18.688416Z","epoch_age_seconds":70216,"freshness":"FRESH","line1":"1 67197U 25304F   26263.60160519  .00003702  00000+0  31783-3 0  9997","line2":"2 67197  70.0017  42.8904 0003016 271.4158  88.6655 14.98334720 43086","mean_motion":14.9833472,"eccentricity":0.0003016,"inclination_deg":70.0017,"raan_deg":42.8904,"arg_perigee_deg":271.4158,"mean_anomaly_deg":88.6655,"bstar":0.00031783,"rev_number":4308,"period_min":96.106696372891,"perigee_km":569.94512099838,"apogee_km":574.13746854579,"semimajor_km":6950.1782947721,"source":"CELESTRAK","updated_at":"2026-09-21T09:00:36.136120Z"}}